Simultaneous Nadir Overpasses (SNOs) Predictions

Prediction of SNOs between GOES-14 and NPP Satellite Orbit:

Table of predicted SNOs for the next 14.0 days since TLE Epoch: 10/8/2022
Index Date Time (GOES-14) GOES-14 Lat,Lon NPP Lat,Lon Distance(km) Time Diff (sec)
1 10/08/2022 08:27:35 0.24,-104.37 0.42,-105.09 82.99 80
2 10/09/2022 08:06:11 0.26,-104.35 -0.60,-100.56 432.15 80
3 10/10/2022 20:28:07 -0.23,-104.32 -0.58,-105.87 175.90 80
4 10/11/2022 20:12:03 -0.25,-104.33 0.45,-101.34 342.11 80
5 10/13/2022 08:33:51 0.21,-104.39 0.69,-106.61 253.28 80
6 10/14/2022 08:12:25 0.23,-104.37 -0.28,-102.07 261.82 80
7 10/15/2022 20:34:22 -0.20,-104.29 -0.89,-107.37 351.43 80
8 10/16/2022 20:18:17 -0.21,-104.30 0.14,-102.85 166.39 80
9 10/18/2022 08:40:06 0.18,-104.40 0.99,-108.12 424.26 80
10 10/19/2022 08:18:40 0.19,-104.38 0.02,-103.58 90.93 80
11 10/21/2022 20:21:51 -0.17,-104.27 -0.19,-104.35 8.58 80
